When you browse on this site, cookies collect data to enhance your experience and personalize the content and advertising you see.
Visit our Privacy Policy to learn more. By continuing to use the site, you agree to this use of cookies and data.
  • In Latvia
  • List of Countries
  • For 7 days
  • Water Temperature
  • Satellite Maps
  • Weather Map
  • Weather Widgets
  • user-avatar
    Login

    Hourly Weather Mahilyow

    Today, 18 January, Friday

    Time Temperature Precipitation Wind Pressure Humidity
    00:00 -1°C° 0 mm 5 mps 736 mmHg 94%
    01:00 -1°C° 0 mm 4 mps 737 mmHg 94%
    02:00 -1°C° 0 mm 4 mps 737 mmHg 94%
    03:00 -1°C° 0 mm 4 mps 737 mmHg 94%
    04:00 -1°C° 0 mm 4 mps 737 mmHg 94%
    05:00 -1°C° 0 mm 4 mps 737 mmHg 94%
    06:00 -1°C° 0.1 mm 4 mps 737 mmHg 94%
    07:00 -1°C° 0.1 mm 4 mps 737 mmHg 95%
    08:00 -1°C° 0.1 mm 4 mps 737 mmHg 95%
    09:00 -1°C° 0.1 mm 4 mps 737 mmHg 96%
    10:00 -1°C° 0.1 mm 5 mps 737 mmHg 96%
    11:00 -1°C° 0.1 mm 5 mps 737 mmHg 97%
    12:00 -1°C° 0.1 mm 5 mps 736 mmHg 97%
    13:00 -1°C° 0.1 mm 5 mps 736 mmHg 97%
    14:00 -2°C° 0.1 mm 6 mps 736 mmHg 97%
    15:00 -2°C° 0.1 mm 6 mps 736 mmHg 94%
    16:00 -2°C° 0.1 mm 6 mps 737 mmHg 91%
    17:00 -2°C° 0.1 mm 6 mps 737 mmHg 88%
    18:00 -3°C° 0.1 mm 6 mps 738 mmHg 87%
    19:00 -5°C° 0.1 mm 6 mps 739 mmHg 87%
    20:00 -7°C° 0.1 mm 7 mps 740 mmHg 87%
    21:00 -9°C° 0 mm 6 mps 741 mmHg 87%
    22:00 -9°C° 0 mm 4 mps 742 mmHg 88%
    23:00 -9°C° 0 mm 3 mps 743 mmHg 89%

    Tomorrow, 19 January, Saturday

    Time Temperature Precipitation Wind Pressure Humidity
    00:00 -10°C° 0 mm 3 mps 743 mmHg 90%
    01:00 -10°C° 0 mm 3 mps 744 mmHg 91%
    02:00 -10°C° 0 mm 3 mps 745 mmHg 92%
    03:00 -11°C° 0 mm 4 mps 745 mmHg 93%
    04:00 -10°C° 0 mm 4 mps 745 mmHg 93%
    05:00 -10°C° 0 mm 4 mps 745 mmHg 93%
    06:00 -10°C° 0 mm 4 mps 745 mmHg 93%
    07:00 -10°C° 0 mm 4 mps 746 mmHg 93%
    08:00 -10°C° 0 mm 4 mps 746 mmHg 93%
    09:00 -9°C° 0 mm 4 mps 746 mmHg 92%
    10:00 -8°C° 0 mm 5 mps 747 mmHg 90%
    11:00 -7°C° 0 mm 5 mps 747 mmHg 89%
    12:00 -7°C° 0 mm 5 mps 747 mmHg 88%
    13:00 -6°C° 0 mm 5 mps 747 mmHg 86%
    14:00 -6°C° 0 mm 5 mps 748 mmHg 85%
    15:00 -6°C° 0 mm 5 mps 748 mmHg 86%
    16:00 -5°C° 0 mm 4 mps 748 mmHg 87%
    17:00 -5°C° 0 mm 4 mps 748 mmHg 88%
    18:00 -5°C° 0 mm 4 mps 748 mmHg 89%
    19:00 -7°C° 0 mm 4 mps 748 mmHg 91%
    20:00 -6°C° 0 mm 3 mps 749 mmHg 92%
    21:00 -8°C° 0 mm 4 mps 749 mmHg 93%
    22:00 -8°C° 0 mm 4 mps 749 mmHg 93%
    23:00 -9°C° 0 mm 4 mps 749 mmHg 93%

    Day after tomorrow, 20 January, Sunday

    Time Temperature Precipitation Wind Pressure Humidity
    00:00 -8°C° 0 mm 4 mps 749 mmHg 93%
    01:00 -8°C° 0 mm 5 mps 749 mmHg 93%
    02:00 -8°C° 0 mm 5 mps 749 mmHg 92%
    03:00 -8°C° 0 mm 5 mps 748 mmHg 93%
    04:00 -10°C° 0 mm 5 mps 748 mmHg 93%
    05:00 -9°C° 0 mm 4 mps 748 mmHg 93%
    06:00 -9°C° 0 mm 4 mps 748 mmHg 93%
    07:00 -9°C° 0 mm 4 mps 748 mmHg 93%
    08:00 -10°C° 0 mm 4 mps 748 mmHg 93%
    09:00 -9°C° 0 mm 4 mps 748 mmHg 92%
    10:00 -8°C° 0 mm 5 mps 748 mmHg 91%
    11:00 -8°C° 0 mm 5 mps 748 mmHg 89%
    12:00 -8°C° 0 mm 5 mps 747 mmHg 88%
    13:00 -7°C° 0 mm 5 mps 747 mmHg 86%
    14:00 -7°C° 0 mm 5 mps 746 mmHg 85%
    15:00 -8°C° 0 mm 5 mps 746 mmHg 86%
    16:00 -9°C° 0 mm 4 mps 745 mmHg 87%
    17:00 -10°C° 0 mm 4 mps 745 mmHg 88%
    18:00 -10°C° 0 mm 4 mps 745 mmHg 89%
    19:00 -11°C° 0 mm 4 mps 745 mmHg 90%
    20:00 -11°C° 0 mm 4 mps 744 mmHg 91%
    21:00 -11°C° 0.1 mm 4 mps 744 mmHg 92%
    22:00 -9°C° 0.1 mm 3 mps 744 mmHg 93%
    23:00 -9°C° 0.1 mm 3 mps 745 mmHg 94%

    21 January, Monday

    Time Temperature Precipitation Wind Pressure Humidity
    00:00 -9°C° 0.1 mm 3 mps 745 mmHg 94%
    01:00 -9°C° 0.1 mm 3 mps 745 mmHg 94%
    02:00 -9°C° 0.1 mm 3 mps 745 mmHg 94%
    03:00 -10°C° 0 mm 3 mps 745 mmHg 94%
    04:00 -13°C° 0 mm 3 mps 746 mmHg 95%
    05:00 -13°C° 0 mm 2 mps 746 mmHg 95%
    06:00 -13°C° 0 mm 2 mps 746 mmHg 95%
    07:00 -14°C° 0 mm 2 mps 747 mmHg 94%
    08:00 -14°C° 0 mm 2 mps 747 mmHg 94%
    09:00 -14°C° 0 mm 3 mps 747 mmHg 93%
    10:00 -13°C° 0 mm 3 mps 748 mmHg 92%
    11:00 -12°C° 0 mm 4 mps 748 mmHg 92%
    12:00 -11°C° 0 mm 4 mps 748 mmHg 92%
    13:00 -11°C° 0 mm 4 mps 748 mmHg 92%
    14:00 -10°C° 0 mm 4 mps 748 mmHg 92%
    15:00 -10°C° 0 mm 4 mps 748 mmHg 92%
    16:00 -11°C° 0 mm 4 mps 749 mmHg 93%
    17:00 -11°C° 0 mm 4 mps 749 mmHg 93%
    18:00 -11°C° 0 mm 4 mps 749 mmHg 92%
    19:00 -10°C° 0 mm 4 mps 749 mmHg 91%
    20:00 -10°C° 0 mm 4 mps 750 mmHg 90%
    21:00 -9°C° 0 mm 3 mps 750 mmHg 90%
    22:00 -9°C° 0 mm 3 mps 750 mmHg 90%
    23:00 -8°C° 0 mm 2 mps 750 mmHg 90%

    22 January, Tuesday

    Time Temperature Precipitation Wind Pressure Humidity
    00:00 -10°C° 0 mm 3 mps 750 mmHg 92%
    01:00 -12°C° 0 mm 3 mps 751 mmHg 94%
    02:00 -13°C° 0 mm 3 mps 751 mmHg 95%
    03:00 -13°C° 0 mm 3 mps 750 mmHg 96%
    04:00 -13°C° 0 mm 2 mps 750 mmHg 96%
    05:00 -13°C° 0 mm 2 mps 750 mmHg 97%
    06:00 -13°C° 0 mm 2 mps 750 mmHg 96%
    07:00 -13°C° 0 mm 3 mps 749 mmHg 96%
    08:00 -13°C° 0 mm 3 mps 749 mmHg 95%
    09:00 -12°C° 0 mm 3 mps 749 mmHg 94%
    10:00 -10°C° 0 mm 3 mps 749 mmHg 92%
    11:00 -10°C° 0 mm 4 mps 749 mmHg 91%
    12:00 -10°C° 0 mm 4 mps 749 mmHg 90%
    13:00 -9°C° 0 mm 4 mps 748 mmHg 90%
    14:00 -8°C° 0 mm 4 mps 748 mmHg 89%
    15:00 -9°C° 0 mm 4 mps 748 mmHg 90%
    16:00 -9°C° 0 mm 3 mps 748 mmHg 91%
    17:00 -9°C° 0 mm 3 mps 748 mmHg 92%
    18:00 -10°C° 0 mm 3 mps 747 mmHg 91%
    19:00 -12°C° 0 mm 3 mps 747 mmHg 91%
    20:00 -13°C° 0 mm 3 mps 747 mmHg 91%
    21:00 -13°C° 0 mm 3 mps 747 mmHg 90%
    22:00 -13°C° 0 mm 3 mps 747 mmHg 90%
    23:00 -13°C° 0 mm 2 mps 747 mmHg 90%

    23 January, Wednesday

    Time Temperature Precipitation Wind Pressure Humidity
    00:00 -13°C° 0 mm 2 mps 747 mmHg 90%
    01:00 -14°C° 0 mm 2 mps 747 mmHg 91%
    02:00 -15°C° 0 mm 2 mps 747 mmHg 91%
    03:00 -16°C° 0 mm 3 mps 747 mmHg 92%
    04:00 -16°C° 0 mm 3 mps 747 mmHg 93%
    05:00 -16°C° 0 mm 3 mps 747 mmHg 94%
    06:00 -16°C° 0 mm 3 mps 747 mmHg 95%
    07:00 -15°C° 0 mm 3 mps 747 mmHg 95%
    08:00 -16°C° 0 mm 4 mps 747 mmHg 96%
    09:00 -15°C° 0 mm 4 mps 747 mmHg 95%
    10:00 -12°C° 0 mm 4 mps 747 mmHg 93%
    11:00 -11°C° 0 mm 4 mps 747 mmHg 92%
    12:00 -10°C° 0 mm 4 mps 747 mmHg 92%
    13:00 -11°C° 0 mm 5 mps 747 mmHg 92%
    14:00 -10°C° 0 mm 5 mps 746 mmHg 92%
    15:00 -10°C° 0 mm 5 mps 746 mmHg 89%
    16:00 -10°C° 0 mm 5 mps 746 mmHg 87%
    17:00 -10°C° 0 mm 5 mps 746 mmHg 84%
    18:00 -10°C° 0 mm 5 mps 746 mmHg 85%
    19:00 -11°C° 0 mm 5 mps 746 mmHg 86%
    20:00 -11°C° 0 mm 5 mps 747 mmHg 87%
    21:00 -11°C° 0 mm 5 mps 747 mmHg 86%
    22:00 -11°C° 0 mm 5 mps 747 mmHg 86%
    23:00 -11°C° 0 mm 5 mps 747 mmHg 85%
    Show more